Regional Weather Roundup
Issued by NWS Upton, NY

Current Version | Previous Version | Graphics & Text | Print | Product List | Glossary Off
Versions: 1 2 3 4 5 6 7 8 9 10 11 12 13 14 15 16 17 18 19 20 21 22 23 24 25 26 27

000
ASUS41 KOKX 291709
RWROKX

REGIONAL WEATHER ROUNDUP
NATIONAL WEATHER SERVICE NEW YORK NY
100 PM EDT MON MAY 29 2017

NOTE: "FAIR" INDICATES FEW OR NO CLOUDS BELOW 12,000 FEET WITH NO
SIGNIFICANT WEATHER AND/OR OBSTRUCTIONS TO VISIBILITY.

NYZ071-072-176-178-NJZ106-104-291800-
NEW YORK CITY METRO AREA

CITY           SKY/WX    TMP DP  RH WIND       PRES   REMARKS
Central Park   CLOUDY    56  54  93 E5        30.00R
Wall St Helipt CLOUDY    59  55  88 NE9       29.98S
Bronx Bot Gard   N/A     55  52  88 E8        29.98S
LaGuardia APRT LGT RAIN  57  53  86 NE15      29.98R
Kennedy INTL   LGT RAIN  59  55  87 NE5       29.99R
Breezy Point     N/A     55 N/A N/A E8          N/A
Newark/Liberty CLOUDY    60  53  77 E6        29.97R
Teterboro      DRIZZLE   57  54  89 NE9       29.97R
$$

NYZ177-179-078>081-291800-
LONG ISLAND NEW YORK

CITY           SKY/WX    TMP DP  RH WIND       PRES   REMARKS
Jones Beach      N/A     55 N/A N/A E12         N/A
Matinecock PT    N/A     75 N/A N/A E18         N/A
Farmingdale    LGT RAIN  58  53  84 CALM      29.98R
MacArthur/ISP  LGT RAIN  58  54  86 VRB6      29.96R FOG
Shirley        CLOUDY    58  54  86 VRB5      29.96R
Mt Sinai Harb    N/A     54 N/A N/A NE13        N/A
Westhampton    LGT RAIN  58  52  80 NE13G21   29.96S
East Hampton   CLOUDY    53  51  92 E10G17    29.95F
Montauk          N/A     54  53  97 NE12G17   29.98S
$$

NYZ052-065-067-291800-
HUDSON VALLEY

CITY           SKY/WX    TMP DP  RH WIND       PRES   REMARKS
White Plains   LGT RAIN  54  52  93 E6        29.98R
Larchmont Harb   N/A     54 N/A N/A NE18        N/A
Croton O-T Hud   N/A     57 N/A N/A MISG        N/A
Newburgh       CLOUDY    55  54  94 VRB5      30.01R FOG
Montgomery     LGT RAIN  57  53  86 VRB6      29.99R
Poughkeepsie   LGT RAIN  56  53  90 CALM      29.99R
Albany         LGT RAIN  56  53  90 S7        29.97R
$$

NJZ001-105-106-008-010-013-015-019>022-104-291800-
NEW JERSEY

CITY           SKY/WX    TMP DP  RH WIND       PRES   REMARKS
Newark/Liberty CLOUDY    60  53  77 E6        29.97R
Teterboro      DRIZZLE   57  54  89 NE9       29.97R
Caldwell       CLOUDY    59  54  83 MISG      29.98R
Somerville     CLOUDY    59  56  89 VRB6      29.95R
Linden         CLOUDY    59  54  83 SE7       29.98R
Perth Amboy      N/A     57 N/A N/A E13G18      N/A
Sussex         CLOUDY    58  55  90 E3        29.98R
Andover          N/A     57  53  86 CALM      29.97R
Trenton        CLOUDY    60  56  86 E9        29.95R
Millville      CLOUDY    60  60 100 NE6       29.95R
Atlantic City  CLOUDY    60  55  83 NE8       29.96R
Wrightstown    CLOUDY    60  58  91 E9        29.94R
Toms River     LGT RAIN  58  56  93 NE5       29.97S
Belmar         CLOUDY    58  56  93 NE8       29.98R
$$

PAZ047>061-062-071-291800-
EASTERN PENNSYLVANIA

CITY           SKY/WX    TMP DP  RH WIND       PRES   REMARKS
Philadelphia   CLOUDY    61  57  87 E7        29.96R
Allentown      CLOUDY    60  54  80 SE7       29.96R
Scranton       CLOUDY    61  55  81 S3        29.94R
$$

CTZ002-004>006-009-010-012-RIZ004-006-007-MAZ004-011-015-291800-
SOUTHERN NEW ENGLAND
 IN CT

CITY           SKY/WX    TMP DP  RH WIND       PRES   REMARKS
Bradley INTL   LGT RAIN  58  53  84 SE10      29.98F
Hartford       CLOUDY    58  52  80 E8        29.98S
Danbury        LGT RAIN  54  52  93 E5        29.99R
Wtrbury/Oxford LGT RAIN  54  48  82 S5        30.00R FOG
Bridgeport     LGT RAIN  57  51  80 E14       29.99R
Meriden        LGT RAIN  57  51  80 E8        29.97F
New Haven      CLOUDY    58  52  80 E7        29.97R
Chester        LGT RAIN  55  52  88 E10       29.97F
Groton         CLOUDY    55  51  86 NE10      29.98R
Wilimantic     LGT RAIN  58  51  78 NE9       30.00R

 IN RI

CITY           SKY/WX    TMP DP  RH WIND       PRES   REMARKS
Providence     CLOUDY    54  51  90 NE12      30.01R
Block Island   LGT RAIN  52  51  97 NE13G18   29.97S
Westerly       CLOUDY    56  52  86 NE6       29.99S
 IN MA

CITY           SKY/WX    TMP DP  RH WIND       PRES   REMARKS
Boston         CLOUDY    50  49  96 E13       30.04S VSB 1/2
Worcester      CLOUDY    49  45  86 E9        30.02R
Westfield      NOT AVBL
Provincetown   CLOUDY    49  48  97 E10       30.03F
Nantucket      RAIN      50  48  93 E16       29.95F FOG
$$

ANZ330-335-338-340-345-350-353-355-291800-
COASTAL MARINE OBSERVATIONS


STATION/POSITION TIME  SKY/WX   TEMP    WIND        PRES    VSBY  WAVE
                                AIR SEA DIR/SP/G                  HT/PER
                 (UTC)          (F)     (DEG/KT/KT) (MB)    (MI)  (FT/S)
NY HARB ENTRANCE 1550            56 57   60/ 14/ 17 1013.4          6/ 8
20 S FIRE ISLAND 1650            55 56   70/ 14/ 16 1013.2          7/ 7
GREAT SOUTH BAY  1630            56 64   70/ 17/ 21   N/A
23 SSW MONTAUK P 1550            53 54              1013.6          7/ 6
15 E BARNEGAT LI 1630               58                N/A           7/ 8
HUDSON CANYON    1550            54 54   70/ 19/ 23 1010.8          8/ 8
KINGS POINT      1636            56 59   50/  7/ 11 1015.1
EXECUTION ROCKS  1645            56      60/ 14/ 19   N/A
CENTRAL LI SOUND NOT AVBL
EASTERN LI SOUND NOT AVBL
ROBBINS REEF     1636            58      80/  6/  7 1015.4
$$


>>>>>>>>>>>>>>>>>>>>>>>>>>>> KEY <<<<<<<<<<<<<<<<<<<<<<<<<<<
>                                                          <
>     SKY/WX - Sky Condition/Present Weather               <
>     TMP    - Temperature in Fahrenheit                   <
>     DP     - Dew Point in Fahrenheit                     <
>     RH     - Relative Humidity in Percent                <
>     WIND   - Direction (from) and Speed in MPH           <
>     PRES   - Mean Sea Level Pressure (inches of Hg)      <
>     WCI    - Wind Chill Index                            <
>     VSB    - VISIBILITY IN MILES                         <
>     HX     - HEAT INDEX                                  <
>     TC     - TEMPERATURE IN CELSIUS                      <
>     VRB    - VARIABLE WIND DIRECTION                     <
>                                                          <
>>>>>>>>>>>>>>>>>>>>>>>>>>>> KEY <<<<<<<<<<<<<<<<<<<<<<<<<<<




USA.gov is the U.S. government's official web portal to all federal, state and local government web resources and services.